Dewpoint
26 26 26 26 26 26 24 24 24 25 25 25 26 27 27 25 26 26 25 25 24 24 24 24 25 25 24 24 25 26 26 26 23 23 27 24 25 23 26 28 31 30 27
27 27 27 27 26 25 26 25 24 24 25 26 26 26 26 26 25 25 24 24 23 21 21 21 22 23 22 22 22 23 24 26 26 23 24 20 19 20 23 24 27 29 22
29 28 29 29 28 28 27 28 27 27 26 26 25 25 25 25 24 24 24 23 22 19 17 16 17 18 16 16 18 19 21 22 24 20 19 18 16 16 18 19 21 27 21
30 30 29 31 30 29 29 28 26 26 25 25 25 25 24 25 25 24 23 21 20 19 17 15 14 13 13 12 12 15 16 17 19 15 14 13 13 13 15 15 16 21 17
31 30 30 31 30 30 29 27 26 25 25 25 25 26 26 25 25 25 23 21 19 18 20 17 18 16 17 16 13 11 12 13 14 13 11 11 12 12 12 14 15 17 19
30 31 30 28 28 29 28 26 26 25 26 26 27 27 27 25 25 26 26 24 24 20 20 16 18 19 18 16 16 16 15 13 13 12 12 12 12 12 13 13 14 15 17
30 29 28 26 26 28 27 25 25 24 26 25 26 27 22 22 23 23 23 22 21 20 16 13 12 16 19 18 15 15 15 15 15 14 13 13 16 15 15 12 13 16 15
29 28 27 25 25 27 26 25 23 23 25 26 26 20 19 20 21 23 21 18 17 16 16 14 14 14 18 13 14 15 15 16 17 16 16 17 18 18 16 12 12 13 17
28 26 26 25 24 25 25 26 24 25 25 26 21 17 17 18 20 23 20 17 17 16 16 15 14 14 16 14 12 11 13 15 17 21 24 18 16 15 17 15 13 10 10
28 26 25 24 24 24 25 25 24 24 23 24 19 16 18 18 20 23 24 19 18 17 16 16 14 14 14 12 12 12 13 14 16 18 19 16 16 15 16 18 16 15 13
28 28 29 28 29 30 27 23 23 24 25 25 22 20 18 17 20 27 25 23 21 20 18 14 14 14 14 13 13 14 14 13 13 14 14 13 13 13 13 14 11 15 14
31 31 31 32 29 25 23 25 25 25 24 23 22 20 19 18 21 24 24 25 24 21 16 12 11 14 14 13 13 14 12 11 12 11 11 11 11 10 11 10 8 11 11
32 32 32 30 20 24 25 25 24 24 23 23 23 23 23 21 19 18 22 25 22 19 16 11 14 14 14 15 14 15 10 11 10 8 9 9 9 7 8 6 6 9 10
32 31 26 21 20 23 24 24 24 23 23 23 22 22 22 23 19 15 18 23 19 14 14 14 14 15 14 13 17 14 9 9 6 6 7 7 6 5 5 5 7 7 6
31 28 25 23 21 22 23 23 23 24 23 23 23 24 22 22 20 17 17 16 15 14 14 16 14 16 17 17 14 12 10 5 3 5 6 5 5 4 4 6 8 6 3
31 24 23 22 22 23 23 25 25 24 24 24 24 25 25 24 23 21 19 17 18 22 17 17 18 15 13 12 8 7 8 5 4 6 5 5 5 4 5 7 6 4 3
26 24 23 22 23 24 24 24 24 25 27 26 26 26 26 27 25 23 22 23 23 15 13 17 16 14 13 10 6 4 6 7 6 4 3 7 5 4 5 5 5 3 3
24 24 24 23 24 24 24 24 23 21 22 24 27 26 26 27 26 24 24 21 17 14 13 14 19 15 12 7 6 7 7 7 5 2 3 5 4 4 2 3 4 2 2
25 25 26 24 24 25 25 24 23 22 21 21 22 24 25 25 24 23 21 17 15 14 14 14 16 14 10 9 8 7 6 5 6 2 7 4 4 1 -1 1 3 2 1
26 25 27 25 25 25 27 25 25 24 23 22 20 20 22 22 21 20 20 18 17 17 17 17 17 12 10 9 7 7 5 5 6 8 1 4 1 -1 -1 2 3 0 1
27 27 27 26 26 25 26 26 25 24 24 24 22 20 19 20 19 18 18 19 18 19 19 21 18 11 9 9 7 4 5 4 4 3 2 3 -1 -0 2 3 1 -0 2
28 27 27 26 26 25 25 26 26 25 25 25 24 22 19 18 19 19 19 19 20 19 20 19 14 13 10 8 5 4 3 3 2 2 -0 -1 -1 -1 -0 -2 -1 -1 -1
27 27 27 27 26 25 25 25 25 25 25 25 26 24 20 19 20 20 21 21 20 19 19 17 14 11 6 4 4 3 4 4 0 -2 -3 -3 -3 -3 -3 -1 -3 -5 -4
27 26 27 27 26 25 25 25 25 25 25 24 25 26 24 23 24 21 18 17 15 14 13 12 11 9 5 2 2 2 -0 -1 -1 -2 -3 -3 -4 -2 -2 -4 -5 -4 -2
27 26 26 27 27 26 26 26 26 26 26 27 27 25 24 21 19 17 16 14 13 11 9 7 4 1 1 1 -1 -2 -2 -7 -7 -6 -5 -4 -4 -5 -5 -2 -3 -4 -5
28 27 27 28 27 27 27 26 27 26 26 26 26 25 21 18 16 15 14 12 10 8 5 3 0 -2 -4 -4 -5 -6 -7 -7 -8 -9 -10 -8 -7 -5 -6 -8 -8 -7 -7
Wind_Speed
20 16 18 19 17 17 18 17 15 15 16 17 16 16 15 15 15 18 16 15 17 15 14 15 14 14 12 11 10 10 12 4 4 5 9 13 11 16 17 16 12 10 11
20 17 18 19 19 19 18 16 15 15 16 17 17 14 15 14 14 15 16 15 14 15 13 14 13 11 11 10 10 11 11 11 8 10 11 13 10 16 14 15 14 10 12
20 21 18 16 19 19 19 17 16 17 16 15 17 15 14 16 16 15 15 14 14 17 16 15 12 11 14 13 12 14 12 11 13 10 10 11 4 17 14 12 15 10 10
22 20 20 17 15 18 17 18 17 16 18 17 16 16 15 16 16 16 16 15 15 14 11 10 9 11 14 15 16 15 14 15 13 14 11 11 8 8 9 14 18 11 12
26 22 19 17 16 15 14 16 15 15 15 17 16 15 14 15 13 14 13 13 15 11 6 6 4 9 12 11 12 16 16 16 14 14 14 10 13 12 18 13 10 15 4
23 22 19 18 16 17 16 15 16 16 15 14 13 14 13 10 10 11 11 12 11 12 7 10 11 13 8 11 14 16 14 14 13 13 10 12 15 10 12 14 13 9 6
22 21 20 19 18 17 18 18 17 18 16 16 15 13 12 13 10 8 3 11 14 11 12 11 9 9 8 2 9 14 15 13 10 8 9 7 8 10 13 15 14 11 4
25 23 21 21 20 18 19 18 18 18 17 17 15 16 16 10 9 8 18 19 19 17 15 13 11 10 13 14 12 10 9 9 7 5 3 5 4 8 11 12 12 12 2
25 25 22 23 21 20 18 19 17 17 16 15 19 18 17 11 9 10 14 16 16 15 13 12 11 10 12 12 12 10 11 11 11 13 8 12 14 15 12 9 15 15 8
26 25 22 22 20 18 16 16 15 16 16 18 17 16 18 13 8 6 6 14 17 14 11 11 12 10 12 12 11 9 9 10 11 10 9 13 12 14 16 9 8 10 9
23 23 22 22 19 17 18 16 17 15 18 19 18 13 16 13 9 10 12 13 16 14 11 10 8 10 11 11 8 5 8 9 12 12 12 12 13 14 15 13 13 9 9
26 25 22 20 18 18 19 15 18 21 21 19 19 16 12 11 10 11 12 13 15 17 14 11 8 8 7 7 6 9 9 10 12 12 12 11 11 12 13 13 15 16 11
25 23 21 20 19 16 19 19 18 19 19 16 16 15 13 10 10 11 11 14 17 16 14 11 9 7 3 5 2 6 6 8 9 11 11 9 8 11 12 16 15 15 12
23 22 20 20 18 17 17 18 18 16 16 15 14 14 13 13 13 12 11 13 15 14 13 10 7 5 4 3 3 4 6 9 8 8 9 6 9 14 14 14 7 11 10
21 20 20 18 19 18 16 17 16 14 18 16 15 16 17 16 16 17 17 15 14 14 11 6 5 4 3 2 4 4 8 9 8 6 9 9 11 12 14 13 9 10 13
21 20 20 17 18 16 16 12 16 21 20 19 19 18 17 18 22 22 20 18 16 16 7 8 8 8 6 3 6 7 9 5 5 8 9 8 9 11 12 10 10 12 13
20 20 18 19 18 17 17 17 17 10 7 22 21 21 22 21 26 24 21 18 20 14 8 8 10 11 8 7 9 10 9 6 9 6 5 5 6 8 10 9 11 10 11
18 21 19 19 17 17 17 17 18 19 17 11 12 16 18 22 23 22 20 17 14 10 8 9 10 13 10 10 11 10 8 7 4 2 2 3 4 6 7 10 11 11 11
20 18 19 18 18 18 18 17 16 16 16 16 12 10 15 19 19 20 20 12 14 14 13 11 10 14 12 12 12 10 8 5 5 3 2 2 5 5 6 9 10 11 10
20 22 20 18 17 17 17 18 16 16 16 16 15 15 15 14 15 15 15 15 15 15 14 12 11 14 15 14 12 11 8 5 5 6 5 6 5 4 5 9 8 10 10
18 19 20 18 18 17 17 17 17 16 16 15 15 16 19 18 17 17 17 17 17 16 15 10 13 16 15 13 11 9 7 9 8 7 6 8 5 5 6 6 7 9 8
18 18 17 18 17 17 17 17 17 16 16 16 13 15 21 16 15 16 16 15 14 14 12 13 13 12 12 12 12 11 8 7 6 10 10 8 6 7 7 7 8 8 9
18 18 16 15 16 16 15 15 16 17 17 16 16 15 18 16 15 15 11 8 8 11 12 14 14 13 11 12 11 11 11 11 11 9 7 5 4 4 5 5 5 8 8
17 18 17 16 16 16 16 15 15 16 16 15 14 14 16 16 13 13 13 13 13 12 12 13 12 13 12 12 11 12 12 12 11 10 9 7 3 3 4 5 8 10 11
16 17 17 17 16 16 15 14 14 14 14 13 12 13 12 13 15 14 13 13 13 13 12 12 12 14 13 13 13 13 12 11 9 8 7 6 4 2 5 6 3 5 7
15 17 16 15 15 15 15 14 13 13 12 12 10 10 14 15 14 14 13 14 13 13 14 13 13 13 13 12 13 13 12 10 8 5 4 3 2 4 2 3 4 6 8
Wind_Direction
156 155 144 141 135 128 129 129 128 129 125 113 102 90 89 90 87 82 77 77 74 67 61 59 55 48 43 35 36 36 34 0 40 36 60 20 18 2 351 350 353 11 10
159 157 150 143 136 133 132 131 128 123 115 111 105 99 92 96 94 95 90 83 86 83 76 72 66 61 52 40 40 40 29 23 47 54 42 15 20 359 348 356 349 16 19
155 152 145 143 141 137 131 122 114 109 106 108 110 111 108 102 107 101 99 101 101 94 86 83 81 83 72 57 50 46 36 32 50 65 41 19 356 9 352 355 351 357 15
148 148 144 141 136 136 128 123 119 117 116 115 117 120 119 114 111 111 114 116 111 107 107 99 91 84 84 72 63 55 49 48 55 52 34 22 13 350 351 359 351 7 25
149 152 149 144 141 136 134 129 127 124 126 125 124 123 129 120 121 131 137 136 122 126 142 141 113 90 78 84 80 69 61 56 59 57 41 29 21 9 4 337 334 333 71
149 152 149 148 152 150 148 144 141 138 144 142 150 148 147 128 133 158 160 155 142 146 141 109 79 56 58 89 88 86 78 65 62 60 48 37 16 6 358 352 347 355 7
150 152 156 158 163 166 159 155 152 156 158 160 160 155 144 130 129 95 123 113 108 121 113 93 71 48 42 70 118 90 78 72 75 67 51 33 21 9 5 4 358 1 48
152 160 166 165 166 171 164 164 162 165 172 172 157 143 136 132 115 80 119 107 98 90 94 91 75 43 30 50 112 88 68 45 43 65 51 3 44 40 33 7 347 353 185
159 163 172 164 165 169 173 162 168 173 179 161 143 142 141 136 110 79 123 121 113 103 98 96 82 61 51 55 63 68 53 26 1 3 62 49 41 29 28 10 15 16 7
164 164 163 158 163 157 151 172 169 169 160 136 142 144 145 137 110 73 122 139 129 122 106 97 88 79 69 68 69 67 51 15 4 13 61 49 39 27 17 8 359 2 359
153 146 141 140 144 153 190 172 160 138 116 119 125 128 134 134 115 89 103 143 147 142 131 123 114 99 83 81 81 74 57 43 29 51 56 38 27 18 11 7 5 6 349
142 144 147 147 166 188 165 148 132 129 126 124 124 127 127 132 128 115 106 103 134 132 141 143 134 126 114 92 70 73 64 49 47 45 37 25 23 15 4 360 354 352 331
144 147 152 169 166 167 145 137 139 139 140 144 144 145 147 148 144 140 129 117 123 126 145 152 148 145 153 159 133 99 81 64 64 43 25 18 18 9 10 4 350 351 2
146 150 159 156 155 154 139 148 146 148 150 156 157 160 165 163 162 155 151 137 133 138 151 154 163 183 206 198 224 161 104 98 73 46 22 13 27 21 9 355 347 353 15
150 156 156 163 163 155 150 152 155 163 165 172 176 171 172 179 187 174 165 163 157 162 165 167 190 226 208 203 151 135 108 87 61 39 34 46 32 21 4 350 356 19 26
158 159 161 155 153 150 148 117 165 172 180 181 183 175 184 183 179 181 181 177 178 175 174 195 199 177 153 144 140 114 128 90 71 66 43 53 32 21 5 351 7 22 14
163 160 157 156 157 149 148 141 130 89 108 196 179 169 167 175 177 180 185 186 174 167 186 199 187 176 166 154 141 129 128 103 106 74 46 52 47 27 16 2 2 11 4
160 157 156 162 163 153 156 154 151 151 148 135 139 147 155 162 173 175 171 163 176 192 195 203 200 179 175 153 147 142 135 125 117 77 36 76 60 49 25 5 354 360 355
155 154 155 165 166 161 161 161 163 162 160 157 145 154 163 167 173 176 178 178 187 205 214 224 214 184 166 152 151 151 152 172 184 193 86 92 94 63 13 357 346 354 352
152 155 154 165 168 167 159 164 165 168 167 172 176 176 170 167 181 189 192 194 204 218 215 215 198 179 159 152 153 163 177 197 174 156 146 130 108 64 3 348 349 358 348
143 149 150 152 159 160 155 160 167 169 173 178 186 183 182 184 191 199 205 207 217 224 220 198 180 166 155 158 163 161 152 149 146 152 131 116 85 36 21 13 9 358 348
141 145 148 155 156 160 166 163 166 175 177 180 185 189 187 190 192 201 209 217 218 221 208 167 156 153 153 144 134 126 131 155 146 127 114 96 74 52 45 11 359 8 357
144 149 153 159 164 168 172 177 179 182 187 189 182 182 185 198 199 206 208 191 158 134 133 131 129 132 130 122 121 126 128 138 140 133 126 113 80 38 12 9 359 342 337
151 157 162 167 172 179 183 186 189 192 193 193 185 180 188 198 197 149 135 123 114 106 104 110 118 129 126 114 106 107 110 109 107 107 122 122 104 33 9 331 323 316 311
160 168 170 173 176 183 183 183 184 185 185 183 180 181 168 136 131 130 127 124 122 122 122 123 124 122 119 120 119 115 107 98 94 88 91 99 96 17 327 332 22 10 351
165 172 174 171 173 173 176 175 175 178 179 173 164 154 141 139 133 131 130 130 130 130 129 130 131 130 128 130 133 128 116 107 99 82 73 86 64 358 76 356 345 334 324